Location: Ash Shall?l al Awwal
(24.0167°N, 32.8667°E)
Time: 05:11:45
(UTC+00:00)

YAOGAN 1 - Pass Details

Date: 02 March 2021
Orbit: 618 x 620 km, 97.9° (Epoch: 12 April)

Event Time Altitude Azimuth Distance (km) Brightness Sun altitude
Rises 17:13:21 0° 184° (S) 2,880 6.0 -19.4°
Reaches altitude 10° 17:15:39 10° 193° (SSW) 1,977 5.3 -19.9°
Maximum altitude 17:19:38 37° 261° (W) 960 4.1 -20.8°
Drops below altitude 10° 17:23:39 10° 329° (NNW) 1,986 5.6 -21.7°
Sets 17:25:58 0° 337° (NNW) 2,894 6.3 -22.3°
